Regional Weather Roundup
Issued by NWS Columbia, SC

Home | Current Version | Previous Version | Text Only | Print | Product List | Glossary On
Versions: 1 2 3 4 5 6 7 8 9 10 11 12 13 14 15 16 17 18 19 20 21 22 23 24 25 26 27 28 29 30 31 32 33 34 35 36 37 38 39 40 41 42 43 44 45 46 47 48 49 50
000
ASUS42 KCAE 021910
RWRCAE
REGIONAL WEATHER ROUNDUP
NATIONAL WEATHER SERVICE COLUMBIA SC
200 PM EST MON MAR 02 2015

NOTE: "FAIR" INDICATES FEW OR NO CLOUDS BELOW 12,000 FEET WITH NO
SIGNIFICANT WEATHER AND/OR OBSTRUCTIONS TO VISIBILITY.

NOT ALL STATIONS ARE QUALITY CONTROLLED BY THE NATIONAL
WEATHER SERVICE. USE DATA WITH CAUTION...ESPECIALLY
DEWPOINT OBSERVATIONS.

SCZ001>056-GAZ040-063>065-077-022000-
...UPSTATE SOUTH CAROLINA...

CITY           SKY/WX    TMP DP  RH WIND       PRES   REMARKS
ANDERSON       MOSUNNY   72  52  49 W8        30.18F
LIBERTY        PTCLDY    70  52  52 MISG      30.18F
SPARTANBURG    MOSUNNY   68  45  42 N6        30.19F
CLEMSON        MOSUNNY   76  49  38 MISG      30.18F
GREENVILLE     MOSUNNY   67  49  52 CALM      30.20F
GREENWOOD      MOSUNNY   68  55  63 SW7       30.20F
GREER          MOSUNNY   67  47  48 N8        30.19F
ROCK HILL      SUNNY     59  50  72 CALM      30.22F
CHESTER        PTCLDY    61  50  67 CALM      30.22F
LAURENS        PTCLDY    64  59  82 CALM      30.20F


...CENTRAL SOUTH CAROLINA...

CITY           SKY/WX    TMP DP  RH WIND       PRES   REMARKS
COLUMBIA APT   MOSUNNY   71  56  58 NW7       30.18F
COLUMBIA OWENS SUNNY     71  53  52 NW8       30.20F
DARLINGTON     MOSUNNY   59  50  72 NW3       30.23F
FLORENCE       MOSUNNY   60  51  72 VRB3      30.22F
MCENTIRE ANGB  PTSUNNY   74  56  53 NW8G17    30.19F
ORANGEBURG     MOSUNNY   72  55  55 W12G20    30.19F
SUMTER SHAW    MOSUNNY   68  55  62 NW10      30.18F
NEWBERRY       CLEAR     63  54  72 CALM      30.22F
AIKEN          FAIR      73  55  53 W9        30.23F
BARNWELL       FAIR      73  59  60 SW12      30.20F
MANNING        FAIR     N/A N/A N/A NW7       30.21F
CAMDEN         FAIR      61  52  72 CALM      30.22F
LANCASTER      PTCLDY    57  54  88 CALM      30.22F
WINNSBORO      CLEAR     64  54  68 CALM      30.21F


...EASTERN AND COASTAL SOUTH CAROLINA...

CITY           SKY/WX    TMP DP  RH WIND       PRES   REMARKS
MYRTLE BEACH   PTSUNNY   61  54  77 NW10      30.23F
N MYRTLE BCH   PTSUNNY   59  52  77 NW9       30.21F
CONWAY         CLOUDY    55  54  94 W3        30.22F FOG
MARION         CLOUDY    57  52  82 CALM      30.23F
HARTSVILLE     FAIR      61  50  67 CALM      30.22F
FLORENCE       MOSUNNY   60  51  72 VRB3      30.22F
DARLINGTON     MOSUNNY   59  50  72 NW3       30.23F
CHARLESTON APT MOSUNNY   70  57  63 W8        30.21F
MOUNT PLEASANT FAIR      70  59  68 W5        30.20F
WALTERBORO     CLEAR     70  61  73 SW8       30.22F
BEAUFORT       PTSUNNY   66  57  72 VRB7      30.23F


...EASTERN GEORGIA...

CITY           SKY/WX    TMP DP  RH WIND       PRES   REMARKS
AUGUSTA BUSH F SUNNY     73  56  54 SW10      30.20F
AUGUSTA DANIEL SUNNY     74  56  53 VRB6      30.20F
THOMSON        MOSUNNY   74  60  63 SW7       30.24F
WASHINGTON     FAIR      72  63  73 W10       30.21F
CLAXTON        FAIR      70  61  73 W7        30.24F
SYLVANIA       CLEAR     69  61  74 NW8       30.24F
STATESBORO     MOSUNNY   71  60  69 W9        30.24F
SAVANNAH       PTSUNNY   70  57  63 W6        30.24F


...SOUTHERN NORTH CAROLINA...

CITY           SKY/WX    TMP DP  RH WIND       PRES   REMARKS
CHARLOTTE      PTSUNNY   64  46  52 W3        30.21F
MONROE         SUNNY     64  49  57 VRB5      30.19F
WADESBORO      PTCLDY    61  48  63 NE5       30.22F
ROCKINGHAM       N/A     58  48  69 NW3       30.23F
RUTHERFORDTON  SUNNY     66  42  42 NW6G17    30.21F
ASHEVILLE      SUNNY     52  37  56 N22       30.25F

$$



USA.gov is the U.S. government's official web portal to all federal, state and local government web resources and services.